#timestamp,LO_Frequency,Hit,StdDev 
1582948855.7,286046984.6,P
1582948875.6,286046985.1,P
1582948895.4,286046984.6,P
1582948915.2,286046982.6,Y
1582948935.1,286046999.0,P
1582948936.0,286046999.0,N
1582948955.8,286046999.6,N
1582948975.7,286046999.2,N
1582948995.5,286046999.4,N
1582949015.3,286046997.3,N
1582949035.2,286046997.7,N
1582949055.0,286046998.0,N
1582949055.9,286046998.0,N
1582949075.7,286046997.5,N
1582949095.6,286046997.8,N
1582949115.4,286046995.3,N
1582949135.3,286046995.0,N
1582949155.1,286046994.9,N
1582949156.0,286046994.9,N
1582949175.8,286046995.1,N
1582949195.7,286046995.0,N
1582949215.5,286046997.8,N
1582949235.4,286046997.5,N
1582949255.2,286046995.0,N
1582949275.0,286046997.6,N
1582949275.9,286046997.6,N
1582949295.8,286046997.9,N
1582949315.6,286046995.4,N
1582949335.4,286046997.9,N
1582949355.3,286046995.3,N
1582949375.1,286046995.5,N
1582949395.9,286046994.9,N
1582949415.7,286046993.3,N
1582949435.5,286046993.4,N
1582949455.4,286046995.9,N
1582949475.2,286046993.5,Y
1582949495.1,286046999.6,P
1582949496.0,286046999.6,N
1582949515.8,286046999.5,N
1582949535.6,286046996.8,N
1582949555.5,286046994.9,Y
1582949575.3,286046998.7,P
1582949595.1,286046996.5,P
1582949615.9,286046999.5,N
1582949635.7,286046996.8,N
1582949655.6,286046997.5,N
1582949675.4,286046995.0,Y
1582949695.2,286046998.4,P
1582949715.1,286046998.7,P
1582949716.0,286046998.7,P
1582949735.8,286046998.4,Y
1582949755.7,286046999.8,P
1582949775.5,286046999.8,N
1582949795.3,286047000.3,N
1582949815.2,286046998.3,N
1582949835.0,286046998.7,N
1582949835.9,286046998.7,N
1582949855.7,286046998.7,N
1582949875.6,286046999.0,N
1582949895.4,286046999.0,N
1582949915.3,286046999.2,N
1582949935.1,286046997.5,Y
1582949955.8,286046996.5,P
1582949975.7,286046996.7,N
1582949995.5,286046996.6,N
1582950015.4,286046997.2,N
1582950035.2,286046997.6,N
1582950055.0,286046997.7,N
1582950055.9,286046997.7,N
1582950075.8,286046995.0,Y
1582950095.6,286046999.5,P
1582950115.4,286046999.3,N
1582950135.3,286047001.1,N
1582950155.1,286047002.5,N
1582950175.9,286047003.9,N
1582950195.7,286047003.7,N
1582950215.5,286047004.2,N
1582950235.4,286047003.7,N
1582950255.2,286047003.5,N
1582950275.0,286047003.4,N
1582950276.0,286047003.4,N
1582950295.8,286047002.9,N
1582950315.6,286047003.8,N
1582950335.5,286047003.5,N
1582950355.3,286047003.4,N
1582950375.1,286047005.8,N
1582950395.9,286047003.4,N
1582950415.7,286047003.8,N
1582950435.6,286047001.7,N
1582950455.4,286047003.9,N
1582950475.2,286047002.6,N
1582950495.1,286047002.4,N
1582950496.0,286047002.4,N
1582950515.8,286047000.0,N
1582950535.6,286047002.3,N
1582950555.5,286047000.8,N
1582950575.3,286046998.3,N
1582950595.2,286046997.1,N
1582950615.9,286046997.7,N
1582950635.7,286046997.2,N
1582950655.6,286046999.3,N
1582950675.4,286046998.7,N
1582950695.2,286046999.6,N
1582950715.1,286046996.5,N
1582950716.0,286046996.5,N
1582950735.8,286046996.6,N
1582950755.7,286046999.4,N
1582950775.5,286046999.0,N
1582950795.3,286046999.4,N
1582950815.2,286046998.3,N
1582950835.0,286046998.8,N
1582950835.9,286046998.8,N
1582950855.8,286046998.4,N
1582950875.6,286047000.8,N
1582950895.4,286047000.9,N
1582950915.3,286047001.1,N
1582950935.1,286046998.1,N
1582950955.8,286046998.9,N
1582950975.7,286046996.9,N
1582950995.5,286046998.0,N
1582951015.4,286046997.1,N
1582951035.2,286046997.3,N
1582951055.0,286046997.8,N
1582951055.9,286046997.8,N
1582951075.8,286046997.0,N
1582951095.6,286046996.7,N
1582951115.4,286046999.3,N
1582951135.3,286046999.6,N
1582951155.1,286046999.5,N
1582951175.9,286046997.4,N
1582951195.7,286046998.0,N
1582951215.5,286046997.7,N
1582951235.4,286046996.9,N
1582951255.2,286046998.0,N
1582951275.0,286046997.9,N
1582951275.9,286046997.9,N
1582951295.8,286046997.1,N
1582951315.6,286046998.0,N
1582951335.5,286046994.9,Y
1582951355.3,286046999.4,P
1582951375.1,286046996.5,P
1582951395.9,286046996.8,N
1582951415.7,286046999.5,N
1582951435.6,286046999.3,N
1582951455.4,286046999.5,N
1582951475.2,286046996.8,N
1582951495.1,286046999.4,N
1582951496.0,286046999.4,N
1582951515.8,286047000.8,N
1582951535.6,286046998.6,N
1582951555